POD5 KRYY-KISM

Flight info

Callsign POD5
Flight time 1h 12m
Altitude 41000
Route DCT SOONE DCT MJKAL JAFAR3
Aircraft C25C/M-SDE2E3FGHRWXY/LB1

Departure

Time 2026-05-06 17:20
Airport Cobb County International Airport-McCollum Field (KRYY)

Arrival

Time 2026-05-06 18:32
Airport Kissimmee Gateway Airport (KISM)
Time Latitude Longitude Altitude Speed Heading
2026-05-06 16:41 34.01150 -84.60302 1030 ft 0 kts 359°
2026-05-06 17:14 34.01169 -84.60294 1030 ft 5 kts 42°
2026-05-06 17:14 34.01179 -84.60246 1029 ft 7 kts 89°
2026-05-06 17:15 34.01188 -84.60177 1027 ft 9 kts 65°
2026-05-06 17:15 34.01226 -84.60109 1026 ft 11 kts 74°
2026-05-06 17:15 34.01229 -84.60007 1023 ft 11 kts 87°
2026-05-06 17:15 34.01231 -84.59909 1019 ft 14 kts 90°
2026-05-06 17:16 34.01234 -84.59779 1014 ft 17 kts 87°
2026-05-06 17:16 34.01235 -84.59648 1010 ft 15 kts 88°
2026-05-06 17:16 34.01237 -84.59522 1008 ft 13 kts 89°
2026-05-06 17:16 34.01240 -84.59402 1005 ft 15 kts 87°
2026-05-06 17:17 34.01244 -84.59280 1004 ft 13 kts 98°
2026-05-06 17:17 34.01243 -84.59181 1003 ft 12 kts 88°
2026-05-06 17:17 34.01241 -84.59081 1003 ft 12 kts 91°
2026-05-06 17:17 34.01243 -84.58978 1002 ft 13 kts 86°
2026-05-06 17:18 34.01246 -84.58872 1002 ft 13 kts 85°
2026-05-06 17:18 34.01248 -84.58835 1002 ft 1 kts 90°
2026-05-06 17:18 34.01247 -84.58805 1001 ft 5 kts 92°
2026-05-06 17:18 34.01246 -84.58753 1000 ft 7 kts 90°
2026-05-06 17:19 34.01249 -84.58689 1000 ft 7 kts 81°
2026-05-06 17:19 34.01267 -84.58668 999 ft 3 kts 13°
2026-05-06 17:19 34.01287 -84.58669 1000 ft 2 kts 353°
2026-05-06 17:19 34.01304 -84.58671 1000 ft 8 kts 357°
2026-05-06 17:20 34.01337 -84.58700 1001 ft 5 kts 270°
2026-05-06 17:20 34.01332 -84.58926 1002 ft 71 kts 266°
2026-05-06 17:20 34.01391 -84.59792 1163 ft 122 kts 270°
2026-05-06 17:20 34.01397 -84.60793 1693 ft 124 kts 257°
2026-05-06 17:21 34.00972 -84.61803 1837 ft 149 kts 229°
2026-05-06 17:21 33.99968 -84.62565 1706 ft 191 kts 203°
2026-05-06 17:21 33.98661 -84.63197 1706 ft 213 kts 204°
2026-05-06 17:21 33.97254 -84.63925 1710 ft 226 kts 204°
2026-05-06 17:22 33.95787 -84.64681 1770 ft 232 kts 206°
2026-05-06 17:22 33.94306 -84.65438 1894 ft 233 kts 202°
2026-05-06 17:22 33.92713 -84.65425 1974 ft 243 kts 163°
2026-05-06 17:22 33.91294 -84.64290 2091 ft 246 kts 146°
2026-05-06 17:23 33.89959 -84.63014 2292 ft 250 kts 145°
2026-05-06 17:23 33.88589 -84.61588 2576 ft 267 kts 145°
2026-05-06 17:23 33.87110 -84.60162 2940 ft 275 kts 145°
2026-05-06 17:23 33.85696 -84.58698 3311 ft 268 kts 144°
2026-05-06 17:24 33.84245 -84.57241 3831 ft 272 kts 144°
2026-05-06 17:24 33.82796 -84.55760 4339 ft 276 kts 144°
2026-05-06 17:24 33.81328 -84.54282 4804 ft 281 kts 144°
2026-05-06 17:24 33.79782 -84.52728 4905 ft 297 kts 145°
2026-05-06 17:25 33.78237 -84.51180 4920 ft 281 kts 144°
2026-05-06 17:25 33.76732 -84.49643 4936 ft 287 kts 144°
2026-05-06 17:25 33.75250 -84.48146 4931 ft 271 kts 144°
2026-05-06 17:25 33.73821 -84.46706 4953 ft 267 kts 144°
2026-05-06 17:26 33.72342 -84.45398 4953 ft 259 kts 161°
2026-05-06 17:26 33.70629 -84.44858 4952 ft 254 kts 173°
2026-05-06 17:26 33.68897 -84.44405 4953 ft 254 kts 173°
2026-05-06 17:26 33.67161 -84.44020 4951 ft 253 kts 174°
2026-05-06 17:27 33.65453 -84.43632 4956 ft 253 kts 174°
2026-05-06 17:27 33.63720 -84.43251 4955 ft 256 kts 175°
2026-05-06 17:27 33.61930 -84.42868 4958 ft 266 kts 175°
2026-05-06 17:27 33.60050 -84.42466 4972 ft 281 kts 174°
2026-05-06 17:28 33.58201 -84.42052 4969 ft 263 kts 174°
2026-05-06 17:28 33.56449 -84.41631 4985 ft 254 kts 174°
2026-05-06 17:28 33.54702 -84.41281 5069 ft 249 kts 175°
2026-05-06 17:28 33.53035 -84.40832 5058 ft 242 kts 173°
2026-05-06 17:29 33.51416 -84.40432 5058 ft 235 kts 174°
2026-05-06 17:29 33.50347 -84.40169 5062 ft 238 kts 174°
2026-05-06 17:29 33.48699 -84.39782 5382 ft 241 kts 174°
2026-05-06 17:29 33.47068 -84.39378 6127 ft 240 kts 175°
2026-05-06 17:30 33.44877 -84.38796 6894 ft 246 kts 174°
2026-05-06 17:30 33.43218 -84.38304 7515 ft 246 kts 173°
2026-05-06 17:30 33.41558 -84.37769 8050 ft 249 kts 172°
2026-05-06 17:30 33.40454 -84.37394 8442 ft 250 kts 172°
2026-05-06 17:31 33.38788 -84.36791 9042 ft 251 kts 171°
2026-05-06 17:31 33.37128 -84.36140 9619 ft 252 kts 169°
2026-05-06 17:31 33.35468 -84.35444 10150 ft 254 kts 168°
2026-05-06 17:31 33.33254 -84.34453 10715 ft 259 kts 167°
2026-05-06 17:32 33.31566 -84.33644 11149 ft 263 kts 166°
2026-05-06 17:32 33.29866 -84.32789 11563 ft 267 kts 165°
2026-05-06 17:32 33.28711 -84.32180 11835 ft 270 kts 165°
2026-05-06 17:32 33.27017 -84.31251 12232 ft 273 kts 163°
2026-05-06 17:33 33.25294 -84.30265 12634 ft 277 kts 162°
2026-05-06 17:33 33.23560 -84.29222 13038 ft 282 kts 162°
2026-05-06 17:33 33.21806 -84.28131 14193 ft 284 kts 161°
2026-05-06 17:33 33.20048 -84.26996 15092 ft 293 kts 160°
2026-05-06 17:34 33.18243 -84.25797 15848 ft 300 kts 160°
2026-05-06 17:34 33.16410 -84.24546 16641 ft 306 kts 159°
2026-05-06 17:34 33.14558 -84.23240 17424 ft 312 kts 158°
2026-05-06 17:34 33.12681 -84.21878 18209 ft 319 kts 158°
2026-05-06 17:35 33.10808 -84.20483 18886 ft 325 kts 157°
2026-05-06 17:35 33.08892 -84.19017 19579 ft 330 kts 156°
2026-05-06 17:35 33.06969 -84.17502 20280 ft 335 kts 155°
2026-05-06 17:36 33.03062 -84.14304 21692 ft 346 kts 153°
2026-05-06 17:36 33.01094 -84.12627 22369 ft 351 kts 152°
2026-05-06 17:36 32.99107 -84.10897 23070 ft 356 kts 152°
2026-05-06 17:36 32.97107 -84.09108 23742 ft 362 kts 151°
2026-05-06 17:37 32.95129 -84.07297 24301 ft 367 kts 150°
2026-05-06 17:37 32.93112 -84.05405 24886 ft 371 kts 149°
2026-05-06 17:37 32.91090 -84.03466 25466 ft 376 kts 148°
2026-05-06 17:37 32.89052 -84.01485 26032 ft 381 kts 148°
2026-05-06 17:38 32.87005 -83.99443 26597 ft 386 kts 147°
2026-05-06 17:38 32.84959 -83.97349 27163 ft 391 kts 147°
2026-05-06 17:38 32.82902 -83.95197 27704 ft 396 kts 146°
2026-05-06 17:38 32.80840 -83.93009 28258 ft 400 kts 145°
2026-05-06 17:39 32.78797 -83.90790 28791 ft 405 kts 144°
2026-05-06 17:39 32.76700 -83.88473 28934 ft 422 kts 143°
2026-05-06 17:39 32.74515 -83.86011 28949 ft 441 kts 142°
2026-05-06 17:39 32.72273 -83.83441 28939 ft 456 kts 141°
2026-05-06 17:40 32.69973 -83.80767 28960 ft 469 kts 140°
2026-05-06 17:40 32.67644 -83.78006 28981 ft 479 kts 140°
2026-05-06 17:40 32.62941 -83.72291 29392 ft 488 kts 138°
2026-05-06 17:41 32.60600 -83.69382 29741 ft 489 kts 139°
2026-05-06 17:41 32.58239 -83.66459 30004 ft 492 kts 138°
2026-05-06 17:41 32.55876 -83.63523 30254 ft 494 kts 138°
2026-05-06 17:41 32.53591 -83.60612 31384 ft 468 kts 138°
2026-05-06 17:42 32.51466 -83.57814 32521 ft 451 kts 137°
2026-05-06 17:42 32.49388 -83.55024 32976 ft 453 kts 137°
2026-05-06 17:42 32.47326 -83.52194 33414 ft 455 kts 136°
2026-05-06 17:42 32.45295 -83.49375 33830 ft 456 kts 136°
2026-05-06 17:43 32.43261 -83.46500 34284 ft 456 kts 135°
2026-05-06 17:43 32.41262 -83.43581 34742 ft 455 kts 134°
2026-05-06 17:43 32.39297 -83.40645 35205 ft 455 kts 134°
2026-05-06 17:43 32.37357 -83.37697 35665 ft 454 kts 133°
2026-05-06 17:44 32.35445 -83.34730 36109 ft 454 kts 133°
2026-05-06 17:44 32.33560 -83.31730 36586 ft 453 kts 134°
2026-05-06 17:44 32.31463 -83.29017 37029 ft 442 kts 146°
2026-05-06 17:44 32.29077 -83.26826 37485 ft 428 kts 158°
2026-05-06 17:45 32.26531 -83.25233 37933 ft 412 kts 169°
2026-05-06 17:45 32.23861 -83.24232 38393 ft 393 kts 181°
2026-05-06 17:45 32.21220 -83.23856 38846 ft 373 kts 193°
2026-05-06 17:45 32.18705 -83.24088 39228 ft 353 kts 205°
2026-05-06 17:46 32.16341 -83.24708 39562 ft 347 kts 208°
2026-05-06 17:46 32.13975 -83.25339 39868 ft 351 kts 206°
2026-05-06 17:46 32.11544 -83.25806 40214 ft 358 kts 201°
2026-05-06 17:46 32.09052 -83.25964 40567 ft 371 kts 192°
2026-05-06 17:47 32.06442 -83.25652 40914 ft 382 kts 185°
2026-05-06 17:47 32.03794 -83.25145 41057 ft 390 kts 184°
2026-05-06 17:47 31.98355 -83.24366 41102 ft 398 kts 189°
2026-05-06 17:48 31.92710 -83.23718 41094 ft 417 kts 186°
2026-05-06 17:48 31.86859 -83.22942 41095 ft 428 kts 186°
2026-05-06 17:49 31.80912 -83.22213 41106 ft 438 kts 186°
2026-05-06 17:49 31.74784 -83.21432 41113 ft 447 kts 186°
2026-05-06 17:50 31.68554 -83.20657 41110 ft 453 kts 186°
2026-05-06 17:50 31.62244 -83.19862 41094 ft 459 kts 185°
2026-05-06 17:51 31.55909 -83.19070 41087 ft 463 kts 185°
2026-05-06 17:51 31.49485 -83.18264 41094 ft 466 kts 185°
2026-05-06 17:52 31.43427 -83.17495 41082 ft 442 kts 185°
2026-05-06 17:52 31.40417 -83.17114 41079 ft 428 kts 186°
2026-05-06 17:52 31.37510 -83.16863 41079 ft 409 kts 191°
2026-05-06 17:53 31.34710 -83.16872 41079 ft 395 kts 194°
2026-05-06 17:53 31.32040 -83.16980 41074 ft 384 kts 195°
2026-05-06 17:53 31.26819 -83.17277 41065 ft 368 kts 197°
2026-05-06 17:54 31.21798 -83.17594 41068 ft 355 kts 197°
2026-05-06 17:54 31.16942 -83.17904 41072 ft 344 kts 197°
2026-05-06 17:55 31.12220 -83.18217 41069 ft 335 kts 198°
2026-05-06 17:55 31.07651 -83.18512 41057 ft 329 kts 198°
2026-05-06 17:56 31.02961 -83.18167 41072 ft 357 kts 178°
2026-05-06 17:56 31.00575 -83.17136 41073 ft 375 kts 165°
2026-05-06 17:56 30.98310 -83.15501 41073 ft 393 kts 152°
2026-05-06 17:57 30.96262 -83.13321 41080 ft 403 kts 141°
2026-05-06 17:57 30.94370 -83.10955 41085 ft 405 kts 141°
2026-05-06 17:57 30.92345 -83.08655 40701 ft 412 kts 148°
2026-05-06 17:57 30.89986 -83.06637 39823 ft 431 kts 155°
2026-05-06 17:58 30.87401 -83.04712 39204 ft 448 kts 156°
2026-05-06 17:58 30.84820 -83.02649 39026 ft 449 kts 151°
2026-05-06 17:58 30.82352 -83.00418 37988 ft 452 kts 149°
2026-05-06 17:58 30.79857 -82.98174 36793 ft 455 kts 150°
2026-05-06 17:59 30.77280 -82.96009 35647 ft 458 kts 152°
2026-05-06 17:59 30.74724 -82.93884 35145 ft 454 kts 150°
2026-05-06 17:59 30.69709 -82.89553 35154 ft 447 kts 150°
2026-05-06 18:00 30.64624 -82.85496 35176 ft 439 kts 156°
2026-05-06 18:00 30.59683 -82.81228 35174 ft 445 kts 147°
2026-05-06 18:01 30.54767 -82.76955 35174 ft 439 kts 152°
2026-05-06 18:01 30.49847 -82.72817 35164 ft 441 kts 149°
2026-05-06 18:02 30.44929 -82.68588 35181 ft 439 kts 150°
2026-05-06 18:02 30.39994 -82.64409 35167 ft 439 kts 150°
2026-05-06 18:03 30.35069 -82.60214 35167 ft 439 kts 150°
2026-05-06 18:03 30.30173 -82.56065 35166 ft 439 kts 150°
2026-05-06 18:04 30.25250 -82.51889 35169 ft 439 kts 150°
2026-05-06 18:04 30.20328 -82.47721 35168 ft 438 kts 150°
2026-05-06 18:05 30.15412 -82.43563 35137 ft 438 kts 150°
2026-05-06 18:05 30.10364 -82.39862 35158 ft 425 kts 164°
2026-05-06 18:06 30.07598 -82.38781 35164 ft 414 kts 175°
2026-05-06 18:06 30.04795 -82.38215 35146 ft 407 kts 182°
2026-05-06 18:06 29.99178 -82.37182 35140 ft 414 kts 175°
2026-05-06 18:07 29.93580 -82.35400 34885 ft 422 kts 175°
2026-05-06 18:07 29.90785 -82.34664 34363 ft 412 kts 177°
2026-05-06 18:07 29.88020 -82.33956 33772 ft 403 kts 176°
2026-05-06 18:08 29.85331 -82.33208 33252 ft 393 kts 175°
2026-05-06 18:08 29.82696 -82.32460 32737 ft 387 kts 175°
2026-05-06 18:08 29.80099 -82.31742 32230 ft 381 kts 176°
2026-05-06 18:08 29.77538 -82.31050 31731 ft 376 kts 176°
2026-05-06 18:09 29.75008 -82.30422 31241 ft 370 kts 177°
2026-05-06 18:09 29.72496 -82.29813 30756 ft 366 kts 177°
2026-05-06 18:09 29.70016 -82.29197 30276 ft 363 kts 177°
2026-05-06 18:09 29.67593 -82.28599 29764 ft 359 kts 177°
2026-05-06 18:10 29.65167 -82.27997 29287 ft 354 kts 177°
2026-05-06 18:10 29.62776 -82.27411 28823 ft 349 kts 177°
2026-05-06 18:10 29.60415 -82.26833 28366 ft 345 kts 177°
2026-05-06 18:10 29.58089 -82.26259 27912 ft 340 kts 176°
2026-05-06 18:11 29.55780 -82.25692 27468 ft 337 kts 176°
2026-05-06 18:11 29.53496 -82.25131 27026 ft 334 kts 176°
2026-05-06 18:11 29.51234 -82.24575 26584 ft 332 kts 176°
2026-05-06 18:11 29.48980 -82.24024 26147 ft 330 kts 176°
2026-05-06 18:12 29.46776 -82.23480 25716 ft 328 kts 175°
2026-05-06 18:12 29.44548 -82.22936 25287 ft 326 kts 175°
2026-05-06 18:12 29.42337 -82.22392 24858 ft 325 kts 175°
2026-05-06 18:12 29.40128 -82.21853 24431 ft 323 kts 175°
2026-05-06 18:13 29.37935 -82.21314 24008 ft 322 kts 175°
2026-05-06 18:13 29.35743 -82.20778 23562 ft 321 kts 174°
2026-05-06 18:13 29.33564 -82.20246 23107 ft 319 kts 174°
2026-05-06 18:13 29.31438 -82.19721 22691 ft 315 kts 174°
2026-05-06 18:14 29.29308 -82.19189 22271 ft 313 kts 171°
2026-05-06 18:14 29.27267 -82.18283 21865 ft 315 kts 161°
2026-05-06 18:14 29.25260 -82.17309 21455 ft 313 kts 162°
2026-05-06 18:14 29.23262 -82.16352 21040 ft 310 kts 162°
2026-05-06 18:15 29.21270 -82.15412 20630 ft 309 kts 162°
2026-05-06 18:15 29.19286 -82.14472 20227 ft 307 kts 162°
2026-05-06 18:15 29.17317 -82.13532 19828 ft 307 kts 161°
2026-05-06 18:15 29.15350 -82.12596 19412 ft 306 kts 161°
2026-05-06 18:16 29.13419 -82.11680 19022 ft 304 kts 161°
2026-05-06 18:16 29.11465 -82.10753 18618 ft 303 kts 161°
2026-05-06 18:16 29.09515 -82.09825 18193 ft 303 kts 161°
2026-05-06 18:16 29.07575 -82.08904 17781 ft 300 kts 161°
2026-05-06 18:17 29.05653 -82.07994 17381 ft 298 kts 161°
2026-05-06 18:17 29.03746 -82.07085 16986 ft 296 kts 160°
2026-05-06 18:17 29.01851 -82.06192 16598 ft 294 kts 160°
2026-05-06 18:17 28.99964 -82.05298 16209 ft 293 kts 160°
2026-05-06 18:18 28.98214 -82.04171 15733 ft 296 kts 139°
2026-05-06 18:18 28.96768 -82.02514 15331 ft 293 kts 134°
2026-05-06 18:18 28.95381 -82.00821 14943 ft 291 kts 133°
2026-05-06 18:18 28.93993 -81.99144 14552 ft 289 kts 134°
2026-05-06 18:19 28.92589 -81.97514 14181 ft 287 kts 134°
2026-05-06 18:19 28.91195 -81.95894 13779 ft 285 kts 134°
2026-05-06 18:19 28.89820 -81.94277 13381 ft 282 kts 133°
2026-05-06 18:19 28.88462 -81.92681 13012 ft 279 kts 134°
2026-05-06 18:20 28.87052 -81.91227 12647 ft 276 kts 140°
2026-05-06 18:20 28.85629 -81.89776 12281 ft 273 kts 136°
2026-05-06 18:20 28.84232 -81.88322 11922 ft 271 kts 137°
2026-05-06 18:20 28.82826 -81.86905 11572 ft 268 kts 139°
2026-05-06 18:21 28.81424 -81.85513 11228 ft 267 kts 138°
2026-05-06 18:21 28.79996 -81.84166 10866 ft 267 kts 147°
2026-05-06 18:21 28.78466 -81.82979 10507 ft 265 kts 141°
2026-05-06 18:21 28.77033 -81.81675 10161 ft 263 kts 142°
2026-05-06 18:22 28.75582 -81.80470 9799 ft 261 kts 144°
2026-05-06 18:22 28.74117 -81.79269 9446 ft 260 kts 143°
2026-05-06 18:22 28.72644 -81.78064 9087 ft 260 kts 144°
2026-05-06 18:22 28.71180 -81.76854 8732 ft 259 kts 143°
2026-05-06 18:23 28.69731 -81.75656 8388 ft 256 kts 142°
2026-05-06 18:23 28.68303 -81.74459 8047 ft 253 kts 143°
2026-05-06 18:23 28.66883 -81.73289 7719 ft 251 kts 142°
2026-05-06 18:23 28.65477 -81.72116 7376 ft 249 kts 144°
2026-05-06 18:24 28.64076 -81.71009 7048 ft 248 kts 143°
2026-05-06 18:24 28.62700 -81.69825 6708 ft 248 kts 142°
2026-05-06 18:24 28.61311 -81.68676 6370 ft 246 kts 144°
2026-05-06 18:24 28.59928 -81.67549 6033 ft 244 kts 143°
2026-05-06 18:25 28.58551 -81.66421 5698 ft 243 kts 143°
2026-05-06 18:25 28.57198 -81.65283 5384 ft 241 kts 144°
2026-05-06 18:25 28.55842 -81.64175 5058 ft 239 kts 143°
2026-05-06 18:25 28.54501 -81.63072 4732 ft 238 kts 144°
2026-05-06 18:26 28.53164 -81.61968 4408 ft 236 kts 144°
2026-05-06 18:26 28.51853 -81.60890 4098 ft 236 kts 144°
2026-05-06 18:26 28.50530 -81.59794 3780 ft 234 kts 145°
2026-05-06 18:26 28.49210 -81.58716 3465 ft 234 kts 145°
2026-05-06 18:27 28.47890 -81.57633 3136 ft 235 kts 144°
2026-05-06 18:27 28.46618 -81.56491 2908 ft 231 kts 140°
2026-05-06 18:27 28.45386 -81.55356 2651 ft 222 kts 146°
2026-05-06 18:27 28.44115 -81.54428 2337 ft 214 kts 148°
2026-05-06 18:28 28.42891 -81.53533 2014 ft 205 kts 147°
2026-05-06 18:28 28.41690 -81.52725 1810 ft 201 kts 149°
2026-05-06 18:28 28.40571 -81.51908 1601 ft 177 kts 148°
2026-05-06 18:28 28.39570 -81.51191 1549 ft 168 kts 148°
2026-05-06 18:29 28.38570 -81.50479 1541 ft 170 kts 150°
2026-05-06 18:29 28.37580 -81.49776 1503 ft 166 kts 148°
2026-05-06 18:29 28.36627 -81.49109 1496 ft 158 kts 149°
2026-05-06 18:29 28.35767 -81.48498 1464 ft 129 kts 146°
2026-05-06 18:30 28.35072 -81.48021 1292 ft 107 kts 151°
2026-05-06 18:30 28.34459 -81.47559 1189 ft 108 kts 147°
2026-05-06 18:30 28.33808 -81.47139 1053 ft 108 kts 150°
2026-05-06 18:30 28.33168 -81.46667 920 ft 110 kts 151°
2026-05-06 18:31 28.32514 -81.46211 751 ft 112 kts 147°
2026-05-06 18:31 28.31870 -81.45746 595 ft 108 kts 150°
2026-05-06 18:31 28.31235 -81.45292 458 ft 108 kts 149°
2026-05-06 18:31 28.30603 -81.44869 344 ft 104 kts 148°
2026-05-06 18:32 28.29987 -81.44421 204 ft 106 kts 149°
2026-05-06 18:32 28.29360 -81.43981 93 ft 103 kts 148°
2026-05-06 18:32 28.28836 -81.43618 92 ft 77 kts 149°
2026-05-06 18:32 28.28450 -81.43349 86 ft 40 kts 149°
2026-05-06 18:33 28.28423 -81.43237 87 ft 16 kts
2026-05-06 18:33 28.28524 -81.43270 86 ft 14 kts 333°
2026-05-06 18:33 28.28626 -81.43339 90 ft 33 kts 330°
2026-05-06 18:33 28.28948 -81.43567 92 ft 56 kts 329°
2026-05-06 18:34 28.29236 -81.43766 89 ft 33 kts 328°
2026-05-06 18:34 28.29273 -81.43794 88 ft 21 kts 189°
2026-05-06 18:34 28.29166 -81.43990 90 ft 26 kts 248°
2026-05-06 18:34 28.29237 -81.44140 95 ft 24 kts 318°